When you browse on this site, cookies collect data to enhance your experience and personalize the content and advertising you see.
Visit our Privacy Policy to learn more. By continuing to use the site, you agree to this use of cookies and data.
  • In Österreich
  • Länderverzeichnis
  • Für 7 Tage
  • Wassertemperatur
  • Wetterkarte
  • News
  • Widgets
  • user-avatar
    Anmelden

    Stündliche Wetter Morschinovichi

    Heute, 15 Dezember, Sonntag

    Zeit Temperatur Niederschläge Wind Luftdruck Luftfeuchtigkeit
    00:00 +3°C° 0.4 mm 4 m/S 739 mmHg 90%
    01:00 +3°C° 0.4 mm 4 m/S 739 mmHg 91%
    02:00 +3°C° 0 mm 4 m/S 739 mmHg 90%
    03:00 +3°C° 0.2 mm 4 m/S 739 mmHg 90%
    04:00 +3°C° 0.2 mm 4 m/S 739 mmHg 90%
    05:00 +3°C° 0.2 mm 5 m/S 739 mmHg 89%
    06:00 +2°C° 0 mm 5 m/S 740 mmHg 87%
    07:00 +3°C° 0 mm 4 m/S 740 mmHg 85%
    08:00 +1°C° 0 mm 4 m/S 741 mmHg 83%
    09:00 +1°C° 0 mm 5 m/S 742 mmHg 82%
    10:00 +2°C° 0 mm 5 m/S 742 mmHg 80%
    11:00 +2°C° 0 mm 5 m/S 742 mmHg 79%
    12:00 +2°C° 0 mm 5 m/S 743 mmHg 81%
    13:00 +3°C° 0 mm 4 m/S 743 mmHg 83%
    14:00 +3°C° 0 mm 3 m/S 744 mmHg 85%
    15:00 +3°C° 0 mm 3 m/S 744 mmHg 85%
    16:00 +3°C° 0 mm 3 m/S 745 mmHg 85%
    17:00 +2°C° 0 mm 3 m/S 745 mmHg 86%
    18:00 +2°C° 0 mm 3 m/S 745 mmHg 84%
    19:00 +2°C° 0 mm 3 m/S 745 mmHg 83%
    20:00 +1°C° 0 mm 4 m/S 745 mmHg 81%
    21:00 +1°C° 0.1 mm 4 m/S 745 mmHg 82%
    22:00 +3°C° 0.1 mm 4 m/S 745 mmHg 83%
    23:00 +3°C° 0.1 mm 4 m/S 745 mmHg 84%

    Morgen, 16 Dezember, Montag

    Zeit Temperatur Niederschläge Wind Luftdruck Luftfeuchtigkeit
    00:00 +3°C° 0.1 mm 4 m/S 746 mmHg 85%
    01:00 +4°C° 0.1 mm 4 m/S 746 mmHg 86%
    02:00 +4°C° 0.1 mm 4 m/S 746 mmHg 86%
    03:00 +4°C° 0 mm 4 m/S 747 mmHg 87%
    04:00 +4°C° 0 mm 4 m/S 747 mmHg 88%
    05:00 +4°C° 0 mm 4 m/S 748 mmHg 89%
    06:00 +3°C° 0 mm 4 m/S 748 mmHg 90%
    07:00 +3°C° 0 mm 4 m/S 748 mmHg 90%
    08:00 +3°C° 0 mm 3 m/S 749 mmHg 90%
    09:00 +3°C° 0 mm 4 m/S 749 mmHg 86%
    10:00 +4°C° 0 mm 4 m/S 749 mmHg 82%
    11:00 +4°C° 0 mm 4 m/S 750 mmHg 78%
    12:00 +5°C° 0 mm 4 m/S 750 mmHg 77%
    13:00 +5°C° 0 mm 4 m/S 750 mmHg 75%
    14:00 +7°C° 0 mm 3 m/S 750 mmHg 73%
    15:00 +5°C° 0 mm 3 m/S 750 mmHg 79%
    16:00 +4°C° 0 mm 3 m/S 751 mmHg 85%
    17:00 +4°C° 0 mm 2 m/S 751 mmHg 90%
    18:00 +4°C° 0 mm 2 m/S 751 mmHg 91%
    19:00 +4°C° 0 mm 2 m/S 751 mmHg 92%
    20:00 +4°C° 0 mm 2 m/S 751 mmHg 93%
    21:00 +4°C° 0 mm 2 m/S 751 mmHg 92%
    22:00 +4°C° 0 mm 2 m/S 751 mmHg 92%
    23:00 +4°C° 0 mm 2 m/S 751 mmHg 92%

    übermorgen, 17 Dezember, Dienstag

    Zeit Temperatur Niederschläge Wind Luftdruck Luftfeuchtigkeit
    00:00 +4°C° 0 mm 2 m/S 751 mmHg 91%
    01:00 +4°C° 0 mm 2 m/S 751 mmHg 91%
    02:00 +4°C° 0 mm 2 m/S 751 mmHg 91%
    03:00 +4°C° 0 mm 2 m/S 751 mmHg 92%
    04:00 +4°C° 0 mm 2 m/S 751 mmHg 93%
    05:00 +3°C° 0 mm 2 m/S 751 mmHg 93%
    06:00 +3°C° 0 mm 2 m/S 750 mmHg 93%
    07:00 +3°C° 0 mm 2 m/S 750 mmHg 92%
    08:00 +2°C° 0 mm 3 m/S 750 mmHg 92%
    09:00 +3°C° 0 mm 3 m/S 750 mmHg 89%
    10:00 +4°C° 0 mm 3 m/S 750 mmHg 85%
    11:00 +5°C° 0 mm 3 m/S 750 mmHg 82%
    12:00 +7°C° 0 mm 3 m/S 750 mmHg 80%
    13:00 +7°C° 0 mm 3 m/S 749 mmHg 78%
    14:00 +8°C° 0 mm 3 m/S 749 mmHg 76%
    15:00 +7°C° 0 mm 3 m/S 749 mmHg 79%
    16:00 +7°C° 0 mm 3 m/S 749 mmHg 82%
    17:00 +5°C° 0 mm 3 m/S 749 mmHg 85%
    18:00 +5°C° 0 mm 3 m/S 749 mmHg 86%
    19:00 +5°C° 0 mm 3 m/S 749 mmHg 87%
    20:00 +5°C° 0 mm 2 m/S 749 mmHg 89%
    21:00 +5°C° 0 mm 2 m/S 749 mmHg 89%
    22:00 +5°C° 0 mm 2 m/S 749 mmHg 89%
    23:00 +5°C° 0 mm 2 m/S 749 mmHg 89%

    18 Dezember, Mittwoch

    Zeit Temperatur Niederschläge Wind Luftdruck Luftfeuchtigkeit
    00:00 +5°C° 0 mm 2 m/S 749 mmHg 90%
    01:00 +5°C° 0 mm 2 m/S 749 mmHg 90%
    02:00 +5°C° 0 mm 2 m/S 749 mmHg 91%
    03:00 +4°C° 0 mm 2 m/S 749 mmHg 91%
    04:00 +4°C° 0 mm 2 m/S 749 mmHg 92%
    05:00 +4°C° 0 mm 2 m/S 749 mmHg 92%
    06:00 +3°C° 0 mm 2 m/S 749 mmHg 93%
    07:00 +3°C° 0 mm 2 m/S 749 mmHg 94%
    08:00 +4°C° 0 mm 1 m/S 749 mmHg 95%
    09:00 +5°C° 0 mm 1 m/S 749 mmHg 94%
    10:00 +5°C° 0 mm 1 m/S 750 mmHg 93%
    11:00 +6°C° 0 mm 1 m/S 750 mmHg 91%
    12:00 +6°C° 0 mm 1 m/S 750 mmHg 90%
    13:00 +7°C° 0 mm 1 m/S 749 mmHg 88%
    14:00 +7°C° 0 mm 1 m/S 749 mmHg 87%
    15:00 +7°C° 0 mm 1 m/S 749 mmHg 89%
    16:00 +6°C° 0 mm 1 m/S 749 mmHg 91%
    17:00 +5°C° 0 mm 1 m/S 749 mmHg 93%
    18:00 +4°C° 0 mm 2 m/S 749 mmHg 92%
    19:00 +4°C° 0 mm 2 m/S 749 mmHg 92%
    20:00 +4°C° 0 mm 2 m/S 749 mmHg 92%
    21:00 +4°C° 0 mm 2 m/S 749 mmHg 92%
    22:00 +4°C° 0 mm 2 m/S 749 mmHg 92%
    23:00 +4°C° 0 mm 2 m/S 749 mmHg 91%

    19 Dezember, Donnerstag

    Zeit Temperatur Niederschläge Wind Luftdruck Luftfeuchtigkeit
    00:00 +3°C° 0 mm 3 m/S 749 mmHg 91%
    01:00 +3°C° 0 mm 3 m/S 749 mmHg 91%
    02:00 +3°C° 0 mm 3 m/S 748 mmHg 91%
    03:00 +3°C° 0 mm 3 m/S 748 mmHg 91%
    04:00 +3°C° 0 mm 3 m/S 748 mmHg 92%
    05:00 +3°C° 0 mm 3 m/S 748 mmHg 92%
    06:00 +3°C° 0 mm 3 m/S 748 mmHg 92%
    07:00 +3°C° 0 mm 3 m/S 748 mmHg 92%
    08:00 +3°C° 0 mm 4 m/S 748 mmHg 92%
    09:00 +4°C° 0 mm 3 m/S 748 mmHg 90%
    10:00 +5°C° 0 mm 3 m/S 748 mmHg 88%
    11:00 +5°C° 0 mm 3 m/S 748 mmHg 86%
    12:00 +7°C° 0 mm 3 m/S 748 mmHg 85%
    13:00 +7°C° 0 mm 2 m/S 748 mmHg 85%
    14:00 +7°C° 0 mm 2 m/S 747 mmHg 85%
    15:00 +6°C° 0 mm 2 m/S 748 mmHg 87%
    16:00 +6°C° 0 mm 2 m/S 748 mmHg 90%
    17:00 +6°C° 0 mm 1 m/S 748 mmHg 92%
    18:00 +6°C° 0 mm 1 m/S 748 mmHg 93%
    19:00 +6°C° 0 mm 1 m/S 748 mmHg 93%
    20:00 +6°C° 0 mm 1 m/S 748 mmHg 94%
    21:00 +5°C° 0 mm 1 m/S 748 mmHg 92%
    22:00 +4°C° 0 mm 2 m/S 748 mmHg 90%
    23:00 +4°C° 0 mm 2 m/S 749 mmHg 88%

    20 Dezember, Freitag

    Zeit Temperatur Niederschläge Wind Luftdruck Luftfeuchtigkeit
    00:00 +4°C° 0 mm 2 m/S 748 mmHg 87%
    01:00 +4°C° 0 mm 2 m/S 748 mmHg 87%
    02:00 +4°C° 0 mm 2 m/S 748 mmHg 86%
    03:00 +4°C° 0.1 mm 2 m/S 748 mmHg 86%
    04:00 +3°C° 0.1 mm 3 m/S 748 mmHg 85%
    05:00 +2°C° 0.1 mm 3 m/S 748 mmHg 85%
    06:00 +2°C° 0.2 mm 3 m/S 748 mmHg 84%
    07:00 +2°C° 0.2 mm 3 m/S 748 mmHg 84%
    08:00 +2°C° 0.2 mm 3 m/S 748 mmHg 83%
    09:00 +1°C° 0.4 mm 4 m/S 748 mmHg 84%
    10:00 +1°C° 0.4 mm 4 m/S 748 mmHg 85%
    11:00 +1°C° 0.4 mm 4 m/S 748 mmHg 86%
    12:00 +1°C° 0.2 mm 4 m/S 747 mmHg 85%
    13:00 +1°C° 0.2 mm 4 m/S 747 mmHg 84%
    14:00 +3°C° 0.2 mm 3 m/S 747 mmHg 83%
    15:00 +3°C° 0 mm 3 m/S 747 mmHg 83%
    16:00 +2°C° 0 mm 3 m/S 747 mmHg 82%
    17:00 +2°C° 0 mm 3 m/S 747 mmHg 82%
    18:00 +1°C° 0 mm 4 m/S 746 mmHg 82%
    19:00 +1°C° 0 mm 4 m/S 746 mmHg 83%
    20:00 +1°C° 0 mm 4 m/S 746 mmHg 83%
    21:00 +1°C° 0 mm 4 m/S 746 mmHg 83%
    22:00 +1°C° 0 mm 4 m/S 746 mmHg 82%
    23:00 +1°C° 0 mm 4 m/S 746 mmHg 81%
    Mehr zeigen